QPF
0.04 0.05 0.09 0.20 0.19 0.11 0.09 0.09 0.09 0.09 0.06 0.04 0.01 0.00 0.00 0.01 0.02 0.03 0.05 0.05 0.03 0.01 0.01 0.01 0.01 0.01 0.01 0.00 0.00 0.00 0.01 0.01 0.00 0.00 0.00 0.01 0.01 0.01 0.01 0.01 0.01 0.00 0.00 0.01 0.00 0.00 0.01 0.02 0.02
0.03 0.08 0.15 0.23 0.15 0.10 0.09 0.08 0.09 0.05 0.03 0.01 0.01 0.00 0.00 0.01 0.01 0.02 0.06 0.05 0.01 0.01 0.00 0.01 0.01 0.01 0.00 0.00 0.00 0.00 0.00 0.00 0.00 0.01 0.01 0.01 0.01 0.01 0.01 0.00 0.00 0.01 0.01 0.01 0.01 0.01 0.01 0.02 0.02
0.05 0.12 0.20 0.21 0.12 0.09 0.08 0.07 0.08 0.04 0.02 0.01 0.00 0.00 0.00 0.01 0.01 0.01 0.03 0.02 0.02 0.01 0.00 0.00 0.01 0.00 0.00 0.00 0.00 0.00 0.00 0.00 0.00 0.01 0.01 0.01 0.01 0.00 0.00 0.00 0.00 0.01 0.01 0.02 0.03 0.02 0.01 0.01 0.02
0.10 0.18 0.24 0.18 0.08 0.07 0.08 0.10 0.10 0.05 0.03 0.02 0.00 0.01 0.01 0.01 0.00 0.00 0.01 0.01 0.01 0.01 0.00 0.00 0.00 0.00 0.00 0.00 0.00 0.00 0.00 0.00 0.00 0.00 0.01 0.00 0.00 0.00 0.00 0.00 0.00 0.01 0.01 0.02 0.02 0.02 0.02 0.02 0.01
0.17 0.22 0.18 0.12 0.06 0.07 0.07 0.08 0.10 0.06 0.05 0.04 0.01 0.00 0.01 0.01 0.00 0.00 0.01 0.00 0.00 0.00 0.00 0.00 0.01 0.00 0.01 0.01 0.01 0.00 0.00 0.00 0.00 0.00 0.00 0.00 0.00 0.00 0.00 0.00 0.00 0.01 0.01 0.01 0.01 0.01 0.01 0.01 0.02
0.22 0.19 0.13 0.09 0.06 0.08 0.11 0.09 0.08 0.05 0.03 0.05 0.02 0.01 0.01 0.01 0.00 0.00 0.00 0.00 0.00 0.00 0.00 0.00 0.00 0.00 0.00 0.00 0.00 0.00 0.00 0.00 0.00 0.00 0.00 0.00 0.00 0.01 0.01 0.01 0.00 0.00 0.01 0.01 0.01 0.01 0.01 0.01 0.01
0.23 0.15 0.10 0.10 0.11 0.12 0.12 0.08 0.07 0.06 0.03 0.03 0.02 0.01 0.01 0.02 0.00 0.00 0.00 0.00 0.00 0.00 0.00 0.00 0.00 0.00 0.00 0.00 0.00 0.00 0.00 0.00 0.00 0.00 0.00 0.00 0.00 0.01 0.01 0.02 0.01 0.01 0.01 0.01 0.01 0.01 0.02 0.03 0.02
0.21 0.15 0.09 0.09 0.14 0.12 0.08 0.05 0.05 0.04 0.04 0.02 0.01 0.01 0.02 0.01 0.00 0.00 0.00 0.00 0.00 0.00 0.00 0.00 0.00 0.00 0.00 0.00 0.00 0.00 0.00 0.00 0.00 0.00 0.00 0.00 0.00 0.01 0.02 0.02 0.02 0.01 0.01 0.01 0.01 0.02 0.02 0.02 0.03
0.23 0.15 0.09 0.09 0.13 0.08 0.05 0.04 0.04 0.03 0.02 0.01 0.00 0.01 0.01 0.00 0.00 0.00 0.00 0.00 0.00 0.00 0.00 0.00 0.00 0.00 0.00 0.00 0.00 0.00 0.00 0.00 0.00 0.00 0.00 0.00 0.00 0.00 0.01 0.01 0.01 0.01 0.01 0.01 0.01 0.01 0.02 0.02 0.03
0.20 0.13 0.10 0.10 0.11 0.06 0.03 0.03 0.03 0.04 0.02 0.01 0.01 0.01 0.01 0.01 0.01 0.00 0.00 0.00 0.00 0.00 0.00 0.00 0.00 0.00 0.00 0.00 0.00 0.00 0.00 0.00 0.00 0.00 0.00 0.00 0.00 0.00 0.01 0.01 0.01 0.01 0.01 0.01 0.01 0.01 0.01 0.01 0.01
0.18 0.13 0.09 0.13 0.11 0.05 0.05 0.03 0.03 0.03 0.03 0.02 0.02 0.01 0.01 0.00 0.00 0.01 0.01 0.01 0.00 0.00 0.00 0.00 0.00 0.00 0.00 0.00 0.00 0.00 0.00 0.00 0.00 0.00 0.00 0.00 0.00 0.01 0.01 0.00 0.00 0.01 0.01 0.01 0.01 0.01 0.01 0.01 0.02
0.15 0.13 0.09 0.10 0.09 0.06 0.07 0.07 0.05 0.04 0.03 0.03 0.01 0.01 0.01 0.01 0.00 0.00 0.01 0.01 0.02 0.01 0.00 0.00 0.00 0.00 0.00 0.00 0.00 0.00 0.00 0.00 0.00 0.00 0.00 0.00 0.00 0.00 0.01 0.01 0.00 0.00 0.00 0.01 0.00 0.00 0.01 0.01 0.01
0.16 0.11 0.08 0.08 0.08 0.07 0.08 0.08 0.10 0.05 0.03 0.03 0.02 0.01 0.01 0.01 0.00 0.00 0.01 0.01 0.02 0.02 0.01 0.01 0.00 0.00 0.00 0.00 0.00 0.00 0.00 0.00 0.00 0.00 0.00 0.00 0.00 0.00 0.00 0.00 0.00 0.00 0.00 0.00 0.00 0.00 0.01 0.01 0.01
0.20 0.17 0.15 0.12 0.07 0.06 0.06 0.06 0.09 0.07 0.04 0.04 0.02 0.02 0.01 0.00 0.00 0.01 0.01 0.02 0.03 0.02 0.01 0.01 0.00 0.00 0.00 0.00 0.00 0.00 0.00 0.00 0.00 0.00 0.00 0.00 0.00 0.00 0.00 0.00 0.00 0.00 0.00 0.00 0.00 0.01 0.01 0.01 0.01
0.15 0.17 0.15 0.12 0.09 0.10 0.10 0.10 0.09 0.08 0.07 0.09 0.07 0.03 0.01 0.01 0.00 0.00 0.01 0.02 0.03 0.02 0.02 0.01 0.00 0.00 0.01 0.00 0.00 0.00 0.00 0.00 0.00 0.00 0.00 0.00 0.00 0.00 0.00 0.00 0.00 0.00 0.00 0.00 0.00 0.01 0.01 0.01 0.01
0.15 0.14 0.13 0.08 0.05 0.08 0.13 0.16 0.10 0.09 0.09 0.09 0.05 0.02 0.01 0.01 0.00 0.00 0.00 0.01 0.01 0.01 0.01 0.01 0.00 0.01 0.00 0.00 0.01 0.00 0.00 0.00 0.00 0.00 0.00 0.00 0.00 0.00 0.00 0.00 0.00 0.00 0.00 0.00 0.00 0.00 0.01 0.01 0.01
0.18 0.14 0.11 0.09 0.05 0.09 0.12 0.12 0.10 0.06 0.05 0.05 0.03 0.02 0.01 0.01 0.01 0.01 0.01 0.01 0.01 0.01 0.01 0.00 0.01 0.01 0.01 0.01 0.00 0.00 0.00 0.00 0.00 0.00 0.00 0.00 0.00 0.00 0.00 0.00 0.00 0.00 0.00 0.00 0.00 0.01 0.01 0.02 0.02
0.11 0.08 0.09 0.08 0.07 0.09 0.12 0.09 0.06 0.05 0.04 0.03 0.04 0.03 0.02 0.02 0.01 0.01 0.01 0.01 0.01 0.01 0.01 0.01 0.01 0.01 0.01 0.00 0.00 0.00 0.00 0.00 0.00 0.00 0.00 0.00 0.00 0.00 0.00 0.00 0.00 0.00 0.00 0.01 0.01 0.01 0.01 0.02 0.02
0.07 0.07 0.09 0.08 0.06 0.09 0.10 0.08 0.05 0.04 0.03 0.02 0.02 0.02 0.02 0.02 0.02 0.01 0.01 0.01 0.00 0.00 0.01 0.01 0.01 0.01 0.01 0.00 0.00 0.00 0.00 0.00 0.00 0.00 0.00 0.00 0.00 0.00 0.00 0.00 0.00 0.00 0.00 0.01 0.01 0.01 0.01 0.02 0.02
0.07 0.07 0.06 0.05 0.04 0.06 0.08 0.06 0.04 0.04 0.03 0.02 0.02 0.02 0.02 0.02 0.02 0.01 0.01 0.01 0.00 0.01 0.01 0.01 0.01 0.00 0.00 0.00 0.00 0.00 0.00 0.00 0.00 0.00 0.00 0.00 0.00 0.00 0.00 0.00 0.00 0.00 0.00 0.00 0.01 0.02 0.02 0.02 0.02
0.05 0.05 0.04 0.04 0.04 0.04 0.04 0.03 0.02 0.03 0.02 0.02 0.02 0.02 0.01 0.01 0.01 0.01 0.01 0.00 0.01 0.01 0.01 0.01 0.01 0.00 0.00 0.00 0.00 0.00 0.00 0.00 0.00 0.00 0.00 0.00 0.00 0.00 0.00 0.00 0.00 0.01 0.00 0.01 0.02 0.01 0.01 0.01 0.02
0.07 0.06 0.05 0.04 0.04 0.05 0.03 0.02 0.02 0.02 0.02 0.02 0.02 0.02 0.01 0.01 0.01 0.01 0.01 0.01 0.01 0.02 0.02 0.02 0.01 0.00 0.00 0.00 0.00 0.00 0.00 0.00 0.00 0.00 0.00 0.00 0.00 0.00 0.00 0.01 0.01 0.00 0.00 0.01 0.01 0.01 0.02 0.02 0.02
0.04 0.04 0.04 0.03 0.03 0.03 0.04 0.02 0.02 0.02 0.02 0.02 0.02 0.02 0.01 0.01 0.01 0.01 0.01 0.01 0.01 0.02 0.02 0.01 0.00 0.00 0.00 0.00 0.00 0.00 0.00 0.00 0.00 0.00 0.00 0.00 0.00 0.00 0.00 0.01 0.01 0.00 0.00 0.01 0.01 0.01 0.02 0.02 0.02
0.01 0.02 0.02 0.02 0.02 0.02 0.02 0.02 0.02 0.01 0.01 0.02 0.02 0.01 0.01 0.01 0.00 0.01 0.01 0.01 0.01 0.01 0.00 0.00 0.00 0.00 0.00 0.00 0.00 0.00 0.00 0.00 0.00 0.00 0.00 0.00 0.00 0.00 0.01 0.01 0.01 0.01 0.01 0.01 0.01 0.01 0.01 0.02 0.02
0.01 0.02 0.02 0.03 0.03 0.01 0.01 0.01 0.01 0.00 0.00 0.01 0.01 0.01 0.01 0.01 0.01 0.01 0.00 0.00 0.00 0.00 0.00 0.00 0.00 0.00 0.00 0.00 0.00 0.00 0.00 0.00 0.00 0.00 0.00 0.00 0.00 0.00 0.00 0.00 0.01 0.02 0.01 0.01 0.01 0.01 0.01 0.02 0.02
0.02 0.02 0.02 0.04 0.03 0.02 0.02 0.02 0.01 0.01 0.00 0.01 0.01 0.01 0.02 0.02 0.01 0.01 0.00 0.00 0.00 0.00 0.00 0.00 0.00 0.00 0.00 0.00 0.00 0.00 0.00 0.00 0.00 0.00 0.00 0.00 0.00 0.00 0.01 0.00 0.00 0.01 0.01 0.01 0.00 0.00 0.01 0.02 0.02
0.01 0.01 0.01 0.03 0.03 0.03 0.02 0.02 0.01 0.01 0.00 0.01 0.01 0.01 0.01 0.01 0.01 0.00 0.00 0.00 0.00 0.00 0.00 0.00 0.00 0.00 0.00 0.00 0.00 0.00 0.00 0.00 0.00 0.00 0.00 0.00 0.00 0.00 0.01 0.01 0.01 0.00 0.01 0.01 0.01 0.01 0.01 0.01 0.02
0.01 0.01 0.02 0.03 0.04 0.05 0.03 0.02 0.01 0.00 0.00 0.00 0.00 0.00 0.00 0.00 0.00 0.00 0.00 0.00 0.00 0.00 0.00 0.00 0.00 0.00 0.00 0.00 0.00 0.00 0.00 0.00 0.00 0.00 0.00 0.00 0.00 0.01 0.01 0.01 0.02 0.01 0.01 0.01 0.01 0.01 0.02 0.01 0.02
0.01 0.01 0.02 0.02 0.03 0.05 0.04 0.02 0.01 0.00 0.00 0.00 0.00 0.00 0.00 0.00 0.00 0.00 0.00 0.00 0.00 0.00 0.00 0.00 0.00 0.00 0.00 0.00 0.00 0.00 0.00 0.00 0.00 0.00 0.00 0.00 0.00 0.00 0.01 0.01 0.02 0.02 0.01 0.01 0.01 0.01 0.02 0.02 0.01
0.01 0.01 0.01 0.01 0.01 0.01 0.02 0.01 0.00 0.00 0.00 0.00 0.00 0.00 0.00 0.00 0.00 0.00 0.00 0.00 0.00 0.00 0.00 0.00 0.00 0.00 0.00 0.00 0.00 0.00 0.00 0.00 0.00 0.00 0.00 0.00 0.00 0.00 0.01 0.01 0.02 0.02 0.01 0.01 0.01 0.01 0.00 0.01 0.01
MSLP
1010.07 1010.98 1012.03 1013.06 1013.92 1014.52 1014.80 1014.77 1014.51 1014.13 1013.77 1013.54 1013.49 1013.65 1013.95 1014.31 1014.63 1014.81 1014.79 1014.56 1014.16 1013.67 1013.17 1012.74 1012.44 1012.28 1012.22 1012.24 1012.26 1012.24 1012.17 1012.04 1011.88 1011.73 1011.63 1011.60 1011.64 1011.74 1011.86 1011.96 1012.02 1012.03 1011.98 1011.89 1011.79 1011.70 1011.63 1011.58 1011.55
1010.34 1011.42 1012.54 1013.56 1014.32 1014.75 1014.83 1014.60 1014.17 1013.68 1013.27 1013.04 1013.03 1013.24 1013.59 1013.99 1014.31 1014.48 1014.44 1014.21 1013.83 1013.39 1012.96 1012.62 1012.40 1012.31 1012.30 1012.34 1012.36 1012.34 1012.25 1012.12 1011.97 1011.84 1011.76 1011.75 1011.80 1011.89 1011.98 1012.05 1012.07 1012.04 1011.97 1011.88 1011.78 1011.70 1011.63 1011.58 1011.54
1010.78 1011.97 1013.13 1014.08 1014.71 1014.96 1014.84 1014.43 1013.86 1013.30 1012.87 1012.66 1012.69 1012.94 1013.31 1013.69 1013.98 1014.10 1014.03 1013.78 1013.42 1013.04 1012.70 1012.46 1012.34 1012.34 1012.39 1012.45 1012.48 1012.44 1012.34 1012.20 1012.05 1011.93 1011.86 1011.86 1011.90 1011.97 1012.03 1012.06 1012.05 1011.99 1011.91 1011.82 1011.74 1011.67 1011.62 1011.57 1011.53
1011.34 1012.60 1013.73 1014.58 1015.06 1015.12 1014.82 1014.27 1013.61 1013.02 1012.60 1012.43 1012.51 1012.78 1013.15 1013.49 1013.71 1013.76 1013.63 1013.36 1013.02 1012.70 1012.46 1012.33 1012.32 1012.39 1012.50 1012.58 1012.60 1012.54 1012.42 1012.26 1012.10 1011.98 1011.92 1011.91 1011.94 1011.99 1012.02 1012.02 1011.97 1011.90 1011.82 1011.74 1011.68 1011.63 1011.61 1011.58 1011.54
1011.98 1013.23 1014.28 1014.99 1015.30 1015.18 1014.74 1014.09 1013.40 1012.82 1012.46 1012.36 1012.50 1012.79 1013.13 1013.42 1013.55 1013.52 1013.32 1013.02 1012.71 1012.45 1012.30 1012.28 1012.37 1012.51 1012.65 1012.74 1012.73 1012.64 1012.48 1012.29 1012.12 1012.00 1011.94 1011.93 1011.96 1011.98 1011.99 1011.96 1011.89 1011.81 1011.73 1011.67 1011.63 1011.62 1011.62 1011.60 1011.57
1012.60 1013.78 1014.70 1015.24 1015.36 1015.10 1014.54 1013.85 1013.18 1012.67 1012.41 1012.40 1012.60 1012.92 1013.24 1013.46 1013.51 1013.39 1013.13 1012.82 1012.52 1012.33 1012.26 1012.33 1012.49 1012.68 1012.84 1012.90 1012.86 1012.72 1012.52 1012.30 1012.12 1012.00 1011.94 1011.94 1011.97 1011.98 1011.97 1011.91 1011.83 1011.74 1011.66 1011.62 1011.61 1011.62 1011.64 1011.64 1011.61
1013.11 1014.17 1014.92 1015.27 1015.22 1014.82 1014.20 1013.51 1012.90 1012.51 1012.37 1012.47 1012.75 1013.10 1013.39 1013.56 1013.54 1013.35 1013.05 1012.73 1012.46 1012.32 1012.33 1012.47 1012.68 1012.89 1013.03 1013.06 1012.97 1012.78 1012.54 1012.30 1012.12 1012.01 1011.97 1011.98 1012.01 1012.02 1011.99 1011.92 1011.82 1011.71 1011.63 1011.59 1011.60 1011.63 1011.66 1011.67 1011.64
1013.48 1014.38 1014.93 1015.08 1014.86 1014.36 1013.71 1013.06 1012.55 1012.29 1012.29 1012.51 1012.86 1013.24 1013.52 1013.64 1013.56 1013.33 1013.01 1012.70 1012.48 1012.39 1012.46 1012.65 1012.89 1013.09 1013.21 1013.19 1013.05 1012.82 1012.55 1012.31 1012.13 1012.04 1012.03 1012.07 1012.11 1012.12 1012.08 1011.98 1011.86 1011.73 1011.64 1011.59 1011.59 1011.62 1011.65 1011.66 1011.62
1013.70 1014.42 1014.76 1014.73 1014.37 1013.79 1013.14 1012.55 1012.15 1012.02 1012.14 1012.46 1012.87 1013.26 1013.53 1013.62 1013.51 1013.26 1012.95 1012.67 1012.50 1012.47 1012.59 1012.81 1013.06 1013.25 1013.33 1013.28 1013.10 1012.84 1012.56 1012.33 1012.18 1012.13 1012.15 1012.22 1012.27 1012.28 1012.22 1012.10 1011.94 1011.78 1011.66 1011.59 1011.57 1011.59 1011.61 1011.60 1011.55
1013.81 1014.34 1014.50 1014.31 1013.84 1013.22 1012.58 1012.06 1011.76 1011.73 1011.94 1012.32 1012.75 1013.14 1013.38 1013.44 1013.32 1013.08 1012.80 1012.57 1012.46 1012.50 1012.66 1012.91 1013.16 1013.34 1013.39 1013.30 1013.10 1012.84 1012.58 1012.37 1012.27 1012.26 1012.33 1012.42 1012.48 1012.48 1012.40 1012.25 1012.05 1011.86 1011.69 1011.59 1011.54 1011.53 1011.53 1011.50 1011.43
1013.87 1014.24 1014.25 1013.94 1013.40 1012.76 1012.15 1011.69 1011.46 1011.49 1011.73 1012.11 1012.53 1012.87 1013.07 1013.10 1012.98 1012.76 1012.53 1012.37 1012.33 1012.43 1012.65 1012.92 1013.17 1013.34 1013.38 1013.28 1013.09 1012.84 1012.62 1012.46 1012.40 1012.44 1012.54 1012.65 1012.72 1012.71 1012.60 1012.42 1012.18 1011.94 1011.74 1011.60 1011.51 1011.46 1011.43 1011.38 1011.29
1013.96 1014.22 1014.12 1013.74 1013.17 1012.53 1011.96 1011.54 1011.34 1011.37 1011.58 1011.91 1012.24 1012.50 1012.64 1012.63 1012.51 1012.33 1012.16 1012.07 1012.11 1012.27 1012.53 1012.83 1013.09 1013.26 1013.31 1013.23 1013.06 1012.86 1012.68 1012.58 1012.57 1012.64 1012.76 1012.88 1012.94 1012.92 1012.79 1012.58 1012.32 1012.05 1011.81 1011.63 1011.50 1011.42 1011.35 1011.27 1011.15
1014.15 1014.32 1014.17 1013.76 1013.20 1012.59 1012.05 1011.65 1011.44 1011.42 1011.54 1011.74 1011.95 1012.10 1012.14 1012.09 1011.97 1011.82 1011.72 1011.71 1011.82 1012.05 1012.35 1012.67 1012.95 1013.14 1013.21 1013.17 1013.06 1012.91 1012.79 1012.74 1012.76 1012.85 1012.98 1013.08 1013.13 1013.08 1012.94 1012.72 1012.45 1012.16 1011.91 1011.71 1011.55 1011.44 1011.34 1011.22 1011.07
1014.44 1014.57 1014.40 1014.01 1013.49 1012.94 1012.43 1012.03 1011.76 1011.64 1011.62 1011.66 1011.70 1011.71 1011.66 1011.56 1011.43 1011.33 1011.29 1011.36 1011.53 1011.81 1012.14 1012.49 1012.79 1013.01 1013.12 1013.14 1013.08 1013.01 1012.94 1012.93 1012.97 1013.05 1013.16 1013.23 1013.25 1013.19 1013.05 1012.83 1012.57 1012.30 1012.06 1011.85 1011.68 1011.54 1011.41 1011.26 1011.08
1014.80 1014.91 1014.76 1014.42 1013.97 1013.47 1012.99 1012.58 1012.24 1011.98 1011.79 1011.65 1011.51 1011.38 1011.23 1011.09 1010.98 1010.92 1010.94 1011.07 1011.29 1011.60 1011.95 1012.31 1012.63 1012.88 1013.05 1013.13 1013.15 1013.14 1013.12 1013.13 1013.17 1013.23 1013.29 1013.32 1013.31 1013.23 1013.09 1012.90 1012.68 1012.45 1012.24 1012.05 1011.89 1011.73 1011.58 1011.40 1011.19
1015.16 1015.26 1015.15 1014.88 1014.51 1014.08 1013.63 1013.18 1012.76 1012.36 1012.00 1011.67 1011.38 1011.12 1010.90 1010.74 1010.65 1010.64 1010.72 1010.90 1011.15 1011.47 1011.82 1012.18 1012.51 1012.79 1013.00 1013.15 1013.24 1013.30 1013.33 1013.34 1013.36 1013.38 1013.38 1013.35 1013.30 1013.21 1013.09 1012.94 1012.78 1012.62 1012.46 1012.30 1012.15 1012.00 1011.82 1011.62 1011.38
1015.41 1015.51 1015.45 1015.26 1014.98 1014.62 1014.20 1013.73 1013.22 1012.69 1012.17 1011.69 1011.26 1010.92 1010.66 1010.51 1010.46 1010.51 1010.65 1010.86 1011.12 1011.43 1011.76 1012.10 1012.42 1012.72 1012.98 1013.19 1013.35 1013.46 1013.53 1013.55 1013.54 1013.49 1013.42 1013.34 1013.24 1013.14 1013.05 1012.95 1012.86 1012.77 1012.68 1012.57 1012.44 1012.29 1012.10 1011.88 1011.64
1015.48 1015.59 1015.59 1015.49 1015.30 1015.02 1014.62 1014.13 1013.54 1012.90 1012.26 1011.66 1011.15 1010.76 1010.51 1010.40 1010.42 1010.53 1010.72 1010.95 1011.21 1011.48 1011.76 1012.06 1012.36 1012.66 1012.95 1013.22 1013.45 1013.62 1013.71 1013.74 1013.69 1013.59 1013.45 1013.31 1013.17 1013.06 1012.98 1012.94 1012.92 1012.90 1012.87 1012.81 1012.71 1012.56 1012.37 1012.15 1011.90
1015.32 1015.46 1015.53 1015.54 1015.44 1015.23 1014.87 1014.36 1013.71 1012.99 1012.25 1011.58 1011.02 1010.63 1010.42 1010.38 1010.48 1010.67 1010.90 1011.14 1011.37 1011.59 1011.81 1012.04 1012.30 1012.60 1012.91 1013.23 1013.51 1013.74 1013.87 1013.90 1013.83 1013.68 1013.48 1013.28 1013.10 1012.98 1012.92 1012.92 1012.95 1013.00 1013.02 1013.00 1012.92 1012.78 1012.59 1012.36 1012.13
1014.95 1015.14 1015.31 1015.42 1015.44 1015.30 1014.98 1014.46 1013.77 1012.98 1012.18 1011.46 1010.89 1010.53 1010.38 1010.42 1010.61 1010.87 1011.15 1011.39 1011.58 1011.74 1011.88 1012.03 1012.24 1012.51 1012.84 1013.19 1013.53 1013.81 1013.98 1014.03 1013.95 1013.77 1013.53 1013.28 1013.07 1012.93 1012.87 1012.89 1012.97 1013.05 1013.10 1013.10 1013.03 1012.89 1012.70 1012.49 1012.29
1014.45 1014.72 1015.01 1015.25 1015.38 1015.33 1015.05 1014.52 1013.80 1012.95 1012.10 1011.34 1010.78 1010.45 1010.37 1010.50 1010.77 1011.10 1011.41 1011.65 1011.80 1011.88 1011.94 1012.01 1012.16 1012.40 1012.73 1013.11 1013.50 1013.82 1014.04 1014.12 1014.05 1013.86 1013.59 1013.32 1013.08 1012.92 1012.86 1012.88 1012.96 1013.06 1013.12 1013.12 1013.05 1012.90 1012.72 1012.53 1012.35
1013.93 1014.31 1014.75 1015.14 1015.39 1015.43 1015.18 1014.65 1013.89 1012.99 1012.09 1011.30 1010.72 1010.42 1010.39 1010.59 1010.92 1011.30 1011.63 1011.86 1011.98 1011.99 1011.97 1011.97 1012.06 1012.26 1012.58 1012.98 1013.40 1013.78 1014.05 1014.17 1014.13 1013.95 1013.68 1013.40 1013.14 1012.96 1012.89 1012.89 1012.96 1013.03 1013.08 1013.06 1012.97 1012.82 1012.64 1012.47 1012.34
1013.50 1014.03 1014.63 1015.18 1015.56 1015.67 1015.46 1014.92 1014.12 1013.16 1012.19 1011.35 1010.74 1010.44 1010.42 1010.65 1011.02 1011.43 1011.78 1012.00 1012.08 1012.05 1011.96 1011.90 1011.94 1012.10 1012.41 1012.82 1013.27 1013.69 1014.01 1014.17 1014.17 1014.02 1013.78 1013.49 1013.23 1013.04 1012.94 1012.92 1012.95 1012.99 1013.00 1012.95 1012.84 1012.68 1012.50 1012.35 1012.26
1013.25 1013.95 1014.71 1015.41 1015.90 1016.09 1015.90 1015.35 1014.49 1013.46 1012.41 1011.49 1010.83 1010.48 1010.44 1010.66 1011.04 1011.46 1011.80 1012.02 1012.09 1012.03 1011.91 1011.81 1011.81 1011.94 1012.23 1012.64 1013.10 1013.55 1013.90 1014.12 1014.16 1014.06 1013.85 1013.58 1013.34 1013.14 1013.01 1012.96 1012.95 1012.95 1012.92 1012.83 1012.69 1012.52 1012.34 1012.21 1012.15
1013.22 1014.07 1014.98 1015.80 1016.39 1016.63 1016.46 1015.87 1014.96 1013.84 1012.70 1011.69 1010.94 1010.51 1010.42 1010.60 1010.95 1011.35 1011.70 1011.91 1011.98 1011.92 1011.80 1011.69 1011.67 1011.79 1012.06 1012.45 1012.92 1013.37 1013.75 1014.00 1014.09 1014.03 1013.87 1013.64 1013.41 1013.22 1013.08 1013.01 1012.96 1012.91 1012.84 1012.72 1012.56 1012.37 1012.20 1012.07 1012.04
1013.38 1014.35 1015.36 1016.27 1016.92 1017.18 1017.00 1016.38 1015.40 1014.21 1012.98 1011.87 1011.02 1010.50 1010.32 1010.43 1010.73 1011.11 1011.44 1011.67 1011.76 1011.73 1011.63 1011.54 1011.53 1011.64 1011.90 1012.27 1012.72 1013.17 1013.56 1013.83 1013.95 1013.94 1013.82 1013.64 1013.45 1013.27 1013.14 1013.04 1012.97 1012.89 1012.78 1012.64 1012.46 1012.27 1012.10 1011.98 1011.95
1013.67 1014.69 1015.75 1016.68 1017.34 1017.59 1017.38 1016.73 1015.70 1014.45 1013.14 1011.95 1011.01 1010.40 1010.12 1010.15 1010.39 1010.73 1011.06 1011.31 1011.44 1011.46 1011.41 1011.36 1011.38 1011.50 1011.74 1012.10 1012.52 1012.95 1013.33 1013.60 1013.75 1013.78 1013.71 1013.58 1013.42 1013.27 1013.15 1013.06 1012.97 1012.88 1012.76 1012.60 1012.41 1012.22 1012.05 1011.94 1011.91
1013.98 1014.99 1016.02 1016.91 1017.52 1017.73 1017.49 1016.80 1015.75 1014.46 1013.12 1011.88 1010.88 1010.19 1009.84 1009.79 1009.96 1010.26 1010.58 1010.85 1011.03 1011.11 1011.14 1011.15 1011.21 1011.36 1011.60 1011.94 1012.33 1012.72 1013.08 1013.35 1013.51 1013.57 1013.54 1013.45 1013.34 1013.23 1013.13 1013.05 1012.97 1012.88 1012.76 1012.60 1012.42 1012.23 1012.06 1011.95 1011.92
1014.22 1015.14 1016.06 1016.85 1017.37 1017.51 1017.22 1016.52 1015.47 1014.20 1012.87 1011.64 1010.62 1009.89 1009.48 1009.37 1009.49 1009.74 1010.05 1010.33 1010.56 1010.71 1010.81 1010.90 1011.02 1011.20 1011.46 1011.78 1012.14 1012.51 1012.83 1013.09 1013.25 1013.33 1013.33 1013.29 1013.22 1013.15 1013.09 1013.03 1012.97 1012.89 1012.78 1012.63 1012.46 1012.28 1012.13 1012.01 1011.96
1014.35 1015.11 1015.87 1016.50 1016.88 1016.93 1016.59 1015.89 1014.88 1013.68 1012.43 1011.25 1010.27 1009.55 1009.12 1008.96 1009.03 1009.24 1009.52 1009.81 1010.07 1010.28 1010.45 1010.62 1010.80 1011.02 1011.30 1011.62 1011.97 1012.30 1012.60 1012.84 1013.00 1013.09 1013.12 1013.12 1013.09 1013.06 1013.03 1013.00 1012.96 1012.90 1012.81 1012.68 1012.53 1012.36 1012.21 1012.09 1012.02
Thickness
5794 5792 5787 5774 5753 5738 5736 5748 5758 5762 5767 5778 5783 5778 5767 5759 5753 5746 5767 5774 5772 5769 5766 5764 5763 5761 5760 5760 5759 5758 5758 5758 5758 5757 5757 5757 5756 5756 5756 5755 5756 5756 5756 5756 5757 5757 5757 5758 5758
5794 5789 5778 5761 5740 5726 5735 5752 5757 5767 5776 5783 5781 5777 5768 5763 5770 5768 5769 5772 5772 5769 5765 5763 5761 5759 5758 5757 5756 5756 5756 5755 5755 5754 5754 5753 5753 5752 5752 5752 5752 5752 5752 5752 5753 5754 5754 5755 5755
5792 5787 5766 5749 5736 5730 5740 5756 5763 5776 5784 5783 5776 5775 5769 5765 5771 5770 5773 5774 5771 5767 5764 5762 5760 5758 5757 5755 5754 5754 5753 5752 5752 5751 5751 5750 5750 5749 5748 5748 5748 5748 5748 5748 5749 5749 5750 5751 5752
5785 5772 5759 5743 5738 5748 5755 5762 5769 5773 5779 5782 5775 5765 5770 5778 5777 5776 5776 5774 5769 5766 5763 5761 5759 5757 5756 5754 5753 5752 5751 5750 5749 5749 5748 5747 5746 5746 5745 5744 5744 5744 5744 5744 5745 5745 5746 5747 5749
5777 5760 5744 5736 5743 5756 5762 5768 5771 5768 5771 5774 5771 5758 5761 5777 5782 5779 5776 5772 5768 5764 5763 5761 5759 5757 5755 5753 5751 5750 5749 5748 5747 5746 5745 5744 5743 5742 5742 5741 5740 5740 5740 5740 5741 5742 5742 5744 5745
5761 5751 5733 5728 5742 5756 5763 5770 5770 5767 5769 5771 5766 5756 5759 5775 5776 5775 5775 5771 5769 5766 5763 5760 5758 5756 5754 5752 5750 5749 5747 5746 5745 5744 5743 5742 5741 5739 5738 5738 5737 5737 5737 5737 5737 5738 5739 5740 5741
5752 5741 5732 5734 5738 5749 5761 5771 5768 5767 5767 5770 5772 5755 5758 5768 5775 5776 5774 5771 5768 5766 5762 5759 5757 5755 5753 5751 5749 5747 5746 5744 5743 5742 5740 5739 5738 5737 5736 5735 5734 5734 5734 5734 5734 5735 5735 5737 5738
5759 5742 5734 5734 5737 5746 5764 5771 5774 5772 5771 5780 5777 5758 5755 5768 5775 5774 5772 5768 5765 5763 5761 5759 5756 5754 5752 5750 5748 5746 5745 5743 5741 5739 5738 5736 5735 5734 5733 5732 5732 5731 5731 5731 5731 5731 5732 5733 5734
5759 5733 5725 5733 5739 5748 5765 5767 5774 5782 5778 5778 5778 5774 5776 5777 5774 5768 5763 5761 5759 5760 5759 5757 5755 5753 5751 5749 5747 5744 5742 5740 5738 5737 5735 5734 5732 5731 5730 5730 5729 5728 5727 5727 5727 5727 5728 5730 5731
5745 5725 5734 5749 5753 5754 5762 5764 5769 5770 5767 5766 5769 5775 5779 5775 5769 5763 5758 5756 5755 5756 5757 5756 5754 5751 5749 5747 5745 5742 5740 5738 5735 5733 5732 5730 5729 5728 5727 5726 5726 5725 5724 5723 5724 5724 5724 5725 5727
5743 5733 5744 5753 5761 5761 5759 5762 5770 5763 5757 5763 5765 5768 5771 5769 5765 5761 5759 5758 5758 5758 5757 5755 5753 5751 5748 5745 5743 5740 5737 5734 5732 5731 5729 5727 5725 5724 5723 5721 5721 5720 5719 5719 5719 5719 5720 5721 5722
5741 5745 5749 5754 5762 5761 5759 5760 5762 5764 5765 5777 5778 5776 5771 5766 5763 5761 5759 5759 5758 5756 5755 5754 5753 5750 5747 5744 5741 5738 5735 5732 5730 5728 5726 5724 5722 5720 5718 5717 5716 5715 5714 5714 5714 5714 5715 5716 5718
5737 5742 5750 5755 5759 5760 5760 5758 5758 5763 5774 5778 5777 5773 5768 5765 5764 5764 5764 5761 5758 5755 5754 5753 5751 5748 5745 5742 5739 5736 5732 5730 5727 5725 5723 5721 5718 5716 5714 5712 5711 5710 5709 5709 5709 5709 5710 5711 5713
5736 5740 5744 5750 5753 5758 5755 5756 5756 5761 5772 5771 5769 5767 5767 5766 5765 5762 5760 5758 5756 5755 5753 5751 5749 5747 5744 5740 5736 5733 5730 5727 5725 5723 5720 5718 5715 5712 5710 5708 5707 5706 5705 5704 5704 5704 5705 5705 5707
5738 5732 5735 5741 5746 5750 5752 5744 5750 5761 5766 5763 5762 5763 5764 5765 5765 5763 5763 5760 5758 5755 5753 5750 5748 5745 5742 5738 5734 5731 5728 5725 5722 5719 5717 5715 5712 5709 5707 5704 5702 5701 5701 5700 5700 5699 5700 5700 5702
5726 5718 5712 5731 5741 5748 5741 5726 5748 5761 5759 5755 5757 5760 5760 5762 5764 5765 5765 5762 5759 5755 5751 5749 5748 5743 5739 5736 5732 5729 5726 5723 5719 5717 5714 5712 5709 5706 5704 5701 5698 5697 5696 5695 5694 5693 5693 5694 5695
5708 5701 5706 5721 5738 5741 5736 5729 5748 5759 5758 5755 5755 5756 5756 5757 5760 5763 5764 5762 5758 5755 5751 5747 5744 5740 5737 5734 5730 5727 5723 5720 5717 5714 5711 5708 5706 5703 5700 5697 5695 5693 5691 5689 5689 5688 5687 5687 5689
5696 5699 5705 5712 5731 5734 5729 5732 5747 5755 5757 5754 5753 5753 5753 5754 5757 5761 5762 5760 5757 5753 5749 5745 5741 5738 5735 5731 5727 5723 5720 5717 5714 5711 5708 5706 5703 5700 5697 5694 5691 5689 5686 5683 5682 5681 5682 5683 5684
5710 5706 5705 5717 5733 5730 5727 5732 5742 5751 5752 5751 5750 5750 5751 5754 5758 5759 5759 5757 5753 5749 5745 5742 5738 5735 5732 5727 5723 5718 5714 5712 5710 5709 5706 5704 5701 5697 5694 5691 5687 5685 5681 5679 5677 5676 5676 5677 5679
5712 5706 5708 5719 5733 5731 5725 5730 5742 5749 5751 5754 5752 5751 5752 5751 5752 5752 5753 5752 5750 5746 5743 5740 5737 5734 5732 5728 5723 5719 5715 5711 5708 5706 5704 5701 5698 5695 5692 5688 5684 5681 5678 5675 5673 5671 5670 5671 5673
5710 5707 5711 5714 5725 5730 5725 5722 5734 5746 5753 5756 5756 5756 5755 5753 5750 5749 5748 5747 5746 5744 5742 5740 5737 5734 5731 5728 5723 5718 5712 5708 5705 5702 5700 5699 5696 5693 5690 5686 5682 5679 5675 5671 5669 5668 5666 5664 5666
5704 5721 5721 5720 5711 5704 5715 5699 5722 5735 5743 5749 5750 5752 5752 5753 5752 5749 5747 5745 5744 5744 5743 5739 5736 5733 5730 5727 5721 5715 5708 5703 5701 5700 5698 5696 5694 5691 5688 5685 5681 5677 5673 5670 5667 5666 5664 5662 5661
5718 5729 5725 5721 5711 5703 5707 5699 5711 5731 5732 5741 5747 5750 5753 5754 5752 5750 5748 5747 5745 5744 5741 5738 5735 5731 5729 5725 5720 5714 5708 5704 5701 5699 5696 5694 5692 5689 5686 5683 5679 5675 5671 5668 5666 5664 5662 5660 5659
5733 5725 5718 5708 5700 5689 5702 5699 5705 5721 5734 5742 5747 5750 5752 5753 5752 5749 5748 5746 5743 5741 5739 5736 5732 5729 5727 5723 5719 5714 5709 5704 5700 5697 5693 5691 5689 5687 5684 5681 5677 5674 5670 5667 5664 5662 5660 5659 5658
5722 5701 5683 5680 5675 5683 5705 5704 5711 5738 5748 5749 5749 5750 5751 5751 5748 5746 5744 5742 5740 5738 5736 5734 5731 5727 5725 5722 5718 5714 5709 5705 5700 5696 5693 5689 5686 5684 5682 5680 5676 5673 5670 5667 5664 5661 5659 5657 5656
5715 5703 5681 5672 5671 5680 5699 5700 5721 5747 5755 5756 5755 5752 5750 5747 5747 5746 5744 5742 5740 5738 5736 5733 5729 5726 5723 5720 5717 5713 5709 5705 5701 5697 5693 5690 5686 5684 5682 5679 5676 5673 5670 5667 5663 5660 5658 5657 5656
5713 5703 5704 5686 5683 5678 5689 5708 5730 5746 5748 5748 5747 5746 5744 5745 5745 5744 5743 5742 5740 5738 5735 5733 5729 5725 5722 5720 5716 5712 5709 5705 5701 5698 5694 5690 5688 5685 5682 5679 5675 5672 5669 5666 5662 5659 5657 5656 5655
5726 5714 5695 5685 5675 5670 5685 5697 5705 5728 5735 5741 5741 5742 5743 5745 5744 5743 5743 5742 5740 5739 5736 5733 5730 5726 5723 5719 5716 5712 5708 5705 5701 5697 5693 5690 5687 5685 5681 5678 5674 5671 5668 5665 5662 5659 5657 5655 5654
5719 5715 5701 5686 5683 5671 5672 5690 5728 5731 5737 5740 5742 5745 5745 5745 5744 5743 5743 5742 5741 5738 5735 5732 5728 5725 5721 5718 5715 5711 5707 5704 5700 5696 5693 5690 5687 5684 5681 5678 5674 5671 5667 5664 5661 5658 5656 5654 5653
5728 5720 5705 5688 5684 5682 5676 5693 5741 5741 5744 5745 5744 5746 5747 5747 5746 5745 5743 5740 5738 5735 5733 5731 5728 5724 5722 5718 5714 5710 5706 5703 5699 5695 5693 5690 5687 5684 5681 5677 5673 5670 5667 5664 5661 5658 5656 5653 5651